User: anonymous   Login
Location: Acton
(51.4942°N, 0.2232°W)
Time: 03:44:43
(UTC+00:00)
Language:

Okean 1-7 Rocket - Orbit

View from above orbital plane
View from above orbital plane
View from above satellite
View from above satellite

Ground track
Ground track

The orbit data is extracted from the following two-line orbital elements,

1 23318U 94066B   20337.53919735  .00000124  00000-0  13547-4 0  9990
2 23318  82.5425  75.9938 0025002  60.5574 299.8129 14.78887640409266
Epoch (UTC): 02 December 2020 12:56:26
Eccentricity: 0.0025002
inclination: 82.5425°
perigee height: 615 km
apogee height: 650 km
right ascension of ascending node: 75.9938°
argument of perigee: 60.5574°
revolutions per day: 14.78887640
mean anomaly at epoch: 299.8129°
orbit number at epoch: 40926

The dashed part of the orbit path shows where the satellite is in the earth's shadow,  

DLR